Temp
76 76 77 76 76 76 75 74 74 74 74 75 76 76 78 78 71 69 70 70 75 78 79 78 78 78 78 78 77 77 77 77 78
72 73 75 75 75 75 75 75 75 73 73 73 73 74 75 72 68 68 68 69 76 78 79 79 78 78 78 78 78 77 77 77 77
70 70 71 73 74 74 75 75 75 75 74 72 72 71 74 73 69 67 68 71 76 78 79 78 78 78 78 78 78 78 77 77 77
68 68 69 70 72 74 74 74 74 75 74 75 75 71 73 70 67 69 68 72 76 78 79 78 78 78 78 78 78 77 77 77 77
64 66 66 69 70 71 73 74 74 74 74 73 73 73 69 64 66 65 67 72 75 78 77 78 78 78 78 78 78 78 78 77 76
56 63 66 67 68 69 69 72 73 73 70 69 70 69 62 61 61 64 70 74 75 77 78 77 77 77 78 78 78 78 77 77 76
61 61 64 65 65 66 67 68 70 69 59 57 63 62 63 62 59 60 71 74 76 75 76 77 76 77 77 78 78 78 77 77 77
48 48 49 49 57 55 56 56 59 60 57 56 57 58 59 59 62 62 69 72 74 75 74 75 76 76 77 77 77 77 77 77 76
46 46 47 47 49 49 50 50 54 53 58 59 56 57 56 59 59 61 68 70 72 74 75 73 74 75 75 76 77 77 77 77 77
46 46 46 47 47 47 48 49 51 51 53 56 58 56 55 55 56 54 65 68 70 72 74 74 72 69 70 73 76 76 76 76 76
49 47 46 45 46 48 47 48 49 50 51 53 55 58 55 55 55 55 54 66 68 69 71 71 72 70 67 67 68 75 75 75 75
50 49 46 45 46 47 47 48 48 47 51 50 53 54 55 55 55 55 54 55 62 66 68 69 71 72 70 63 65 68 71 74 74
48 47 48 47 45 46 45 45 45 45 46 47 49 51 52 53 54 54 54 53 56 59 65 67 69 70 70 71 64 64 66 68 69
47 47 48 48 45 44 45 46 44 44 45 47 49 48 48 50 55 53 53 53 54 53 60 65 65 67 69 71 72 66 66 65 67
47 46 46 47 46 44 43 42 43 43 44 51 53 47 47 48 47 49 53 51 53 53 53 52 55 64 67 68 70 71 71 68 68
48 47 44 45 45 45 45 43 43 42 42 41 42 43 45 46 46 47 47 49 52 51 52 51 53 54 64 65 67 68 69 70 70
48 47 46 46 43 44 44 44 41 42 42 42 40 37 41 42 46 45 48 47 49 51 52 51 53 53 53 57 64 64 67 68 69
46 46 46 46 45 42 44 44 43 41 40 45 43 34 36 39 42 44 45 47 46 47 48 51 52 52 52 56 59 63 65 66 67
46 46 46 45 45 43 43 47 45 42 39 41 47 42 40 37 36 41 42 44 46 46 46 47 49 50 50 56 59 62 63 65 66
46 46 45 45 45 45 45 45 46 45 42 39 40 41 39 39 38 35 38 40 42 44 46 46 46 48 49 50 55 62 62 63 64
MSLP
1015.87 1015.65 1015.35 1015.11 1014.91 1014.59 1014.40 1014.26 1014.09 1013.86 1013.62 1013.41 1013.32 1013.10 1012.97 1013.03 1013.26 1013.34 1013.40 1013.43 1013.35 1013.25 1013.23 1013.38 1013.53 1013.63 1013.77 1013.93 1014.10 1014.28 1014.41 1014.56 1014.58
1016.51 1015.97 1015.53 1015.25 1014.92 1014.70 1014.45 1014.25 1014.08 1013.97 1013.91 1013.79 1013.52 1013.24 1012.95 1012.72 1012.89 1013.02 1013.15 1013.15 1012.87 1012.85 1012.92 1013.15 1013.31 1013.50 1013.65 1013.89 1014.10 1014.25 1014.39 1014.46 1014.60
1016.86 1016.55 1016.01 1015.27 1015.03 1014.67 1014.37 1014.16 1014.10 1013.92 1013.70 1013.72 1013.63 1013.35 1012.90 1012.75 1012.51 1012.72 1012.80 1012.77 1012.64 1012.46 1012.46 1012.85 1013.07 1013.21 1013.42 1013.68 1013.90 1014.17 1014.29 1014.50 1014.57
1017.02 1016.62 1016.17 1015.50 1015.07 1014.47 1014.28 1014.00 1013.94 1013.77 1013.58 1013.21 1013.11 1013.31 1012.93 1012.75 1012.91 1012.92 1012.71 1012.50 1012.29 1012.13 1012.18 1012.51 1012.74 1012.94 1013.14 1013.41 1013.59 1013.84 1014.06 1014.33 1014.56
1017.28 1016.66 1016.19 1015.65 1015.26 1014.70 1014.15 1013.73 1013.62 1013.72 1013.47 1013.35 1012.95 1013.18 1013.20 1013.20 1013.02 1012.71 1012.64 1012.26 1011.94 1011.85 1011.98 1012.18 1012.40 1012.61 1012.83 1013.04 1013.30 1013.49 1013.72 1014.00 1014.29
1017.26 1016.71 1016.20 1015.87 1015.25 1014.96 1014.38 1013.71 1013.39 1013.60 1013.73 1013.54 1013.30 1013.26 1013.18 1013.12 1012.97 1012.68 1012.57 1011.93 1011.56 1011.36 1011.44 1011.65 1012.00 1012.26 1012.43 1012.68 1012.94 1013.12 1013.56 1013.79 1014.08
1016.64 1016.41 1016.13 1015.66 1015.32 1015.06 1014.83 1014.36 1013.76 1013.66 1013.75 1013.59 1013.50 1013.48 1013.04 1013.00 1012.96 1012.80 1012.39 1011.84 1011.38 1011.22 1010.98 1011.18 1011.57 1011.83 1012.02 1012.24 1012.47 1012.76 1013.14 1013.34 1013.77
1016.36 1016.26 1015.83 1015.65 1015.34 1015.00 1014.81 1014.67 1014.27 1013.88 1013.49 1013.49 1013.43 1013.40 1013.18 1013.26 1012.79 1012.58 1012.18 1011.91 1011.73 1011.33 1010.96 1010.78 1010.98 1011.37 1011.41 1011.76 1012.02 1012.20 1012.54 1012.90 1013.35
1015.81 1015.83 1015.31 1015.44 1015.07 1014.93 1014.62 1014.35 1013.83 1013.50 1013.25 1013.23 1013.13 1013.10 1013.22 1013.18 1012.88 1012.79 1012.43 1012.13 1011.90 1011.44 1010.94 1010.91 1010.86 1011.10 1011.12 1011.21 1011.46 1011.70 1011.95 1012.30 1012.73
1015.38 1015.21 1015.16 1014.92 1014.71 1014.45 1014.41 1014.06 1013.62 1013.25 1013.09 1012.83 1012.99 1012.79 1012.83 1012.96 1012.97 1012.81 1012.52 1012.06 1011.74 1011.51 1011.17 1010.98 1011.28 1011.34 1011.15 1010.89 1010.78 1010.95 1011.42 1011.83 1012.16
1014.64 1014.66 1014.58 1014.52 1014.26 1013.98 1013.85 1013.92 1013.44 1013.08 1012.87 1012.51 1012.56 1012.58 1012.51 1012.54 1012.64 1012.64 1012.50 1012.14 1011.92 1011.75 1011.65 1011.38 1011.23 1011.19 1011.24 1010.53 1010.38 1010.11 1010.72 1011.34 1011.87
1014.38 1014.23 1014.15 1013.98 1013.76 1013.68 1013.51 1013.23 1013.14 1012.86 1012.78 1012.53 1012.06 1012.22 1012.38 1012.30 1012.30 1012.30 1012.36 1012.33 1012.20 1011.99 1011.93 1011.60 1011.43 1011.23 1011.15 1011.47 1011.15 1008.80 1010.83 1011.23 1011.58
1014.36 1013.95 1013.58 1013.31 1013.36 1013.30 1013.24 1013.20 1012.97 1012.57 1012.67 1012.47 1011.99 1011.85 1011.92 1012.02 1012.04 1012.01 1012.05 1012.06 1012.10 1012.05 1011.82 1011.65 1011.42 1011.17 1010.85 1010.48 1010.61 1010.27 1010.51 1011.34 1011.38
1014.04 1013.66 1013.05 1012.65 1012.66 1012.62 1012.57 1012.54 1012.39 1012.27 1012.13 1012.25 1012.05 1011.59 1011.58 1011.52 1011.62 1011.75 1011.81 1011.84 1011.85 1011.80 1011.75 1011.54 1011.44 1011.31 1010.84 1010.59 1010.51 1010.77 1011.46 1011.39 1011.32
1013.38 1013.06 1012.75 1012.31 1012.02 1011.94 1011.95 1011.99 1011.79 1011.87 1011.99 1011.66 1011.56 1011.22 1011.06 1011.18 1011.29 1011.54 1011.57 1011.72 1011.63 1011.53 1011.57 1011.69 1011.57 1011.31 1010.93 1010.54 1010.19 1009.99 1010.04 1011.21 1011.20
1012.78 1012.54 1012.18 1011.93 1011.65 1011.29 1011.20 1011.27 1011.42 1011.53 1011.48 1011.77 1011.34 1011.26 1011.00 1010.93 1011.00 1011.16 1011.32 1011.59 1011.43 1011.33 1011.35 1011.32 1011.38 1011.37 1011.04 1010.88 1010.73 1010.49 1010.60 1010.80 1010.66
1012.01 1011.65 1011.36 1011.19 1011.18 1010.93 1010.55 1010.62 1010.83 1010.74 1010.88 1011.14 1011.45 1011.30 1011.28 1010.86 1010.67 1010.87 1010.96 1011.28 1011.25 1011.13 1011.08 1011.04 1010.95 1011.05 1011.13 1010.99 1010.77 1010.89 1010.70 1010.41 1010.63
1011.43 1011.02 1010.62 1010.34 1010.30 1010.25 1010.03 1009.82 1010.03 1010.28 1010.25 1010.08 1010.38 1010.98 1010.64 1010.93 1010.68 1010.77 1010.63 1010.97 1011.16 1010.97 1011.01 1010.78 1010.69 1010.80 1010.94 1010.86 1010.69 1010.59 1010.56 1010.66 1010.73
1010.61 1010.19 1009.81 1009.51 1009.41 1009.34 1009.19 1009.06 1009.16 1009.41 1009.49 1009.57 1009.52 1009.74 1010.14 1010.52 1010.92 1010.78 1010.66 1010.63 1011.02 1010.91 1010.79 1010.63 1010.62 1010.68 1010.73 1010.67 1010.50 1010.53 1010.48 1010.42 1010.42
1009.75 1009.27 1008.90 1008.71 1008.50 1008.46 1008.51 1008.42 1008.34 1008.66 1008.66 1008.84 1009.04 1009.29 1009.73 1009.98 1010.39 1010.80 1010.90 1010.73 1010.78 1010.70 1010.35 1010.48 1010.40 1010.46 1010.45 1010.57 1010.29 1010.20 1010.36 1010.46 1010.44
Wind_Speed
19 19 19 17 17 17 16 15 15 16 14 13 15 15 14 12 6 6 6 6 10 13 15 13 12 12 11 9 8 8 9 9 10
24 25 19 19 16 17 16 15 14 11 13 15 15 12 14 10 5 6 6 6 14 15 18 16 15 15 14 12 12 11 10 11 10
22 23 22 22 19 18 16 15 15 14 10 11 14 17 15 7 5 6 6 11 16 15 19 18 17 17 16 15 14 13 12 12 12
23 23 22 20 22 18 19 15 15 15 14 11 10 11 14 8 3 7 3 12 16 16 19 18 19 18 19 17 17 16 15 14 13
20 22 18 20 20 23 19 19 14 15 13 12 9 10 6 6 5 4 4 14 16 18 16 20 21 21 20 19 19 18 17 16 15
11 14 19 22 22 22 22 19 18 13 11 11 10 8 3 3 3 3 11 12 15 17 16 19 22 22 22 21 20 19 18 17 17
11 14 19 21 20 19 20 19 21 13 4 3 6 2 3 3 3 3 11 11 13 13 17 17 23 24 23 23 22 21 21 20 19
3 4 4 4 13 5 8 7 6 7 4 4 3 3 3 2 3 6 12 12 12 12 8 17 21 25 25 25 24 23 23 22 21
5 4 4 4 4 6 5 4 7 6 5 5 5 3 2 2 2 4 11 10 11 11 10 14 13 19 25 26 26 24 24 24 23
5 5 4 5 5 4 5 5 5 5 6 5 5 3 2 3 2 2 11 11 10 10 11 8 8 11 17 19 28 26 25 24 24
8 5 4 5 4 5 4 5 5 5 4 5 5 5 4 2 2 2 4 9 10 10 10 10 9 6 12 22 27 28 25 24 24
10 7 5 5 5 6 5 5 4 4 5 7 5 4 5 4 3 2 2 4 8 9 11 11 11 11 6 8 18 9 7 19 23
9 7 7 6 4 4 4 4 5 4 4 4 5 4 4 5 5 3 2 2 2 6 10 12 11 12 13 12 8 13 10 10 12
8 9 10 8 5 5 5 5 4 3 3 5 7 5 5 5 3 4 4 4 2 2 8 11 11 11 12 11 9 6 9 6 15
9 8 9 10 8 5 4 6 4 4 4 5 7 5 5 4 4 4 3 4 5 3 3 3 5 7 7 7 7 6 6 7 12
11 9 9 9 9 9 8 5 7 5 4 2 3 3 5 5 5 4 4 5 5 4 4 3 3 3 4 5 6 6 6 5 4
12 12 10 9 7 11 8 9 5 4 5 5 2 4 3 3 5 3 4 6 4 3 4 4 5 4 2 2 2 3 5 6 7
14 14 12 11 9 9 10 8 9 7 5 10 5 2 5 1 0 5 4 5 3 2 4 4 3 3 3 3 2 2 4 5 7
14 14 13 12 9 10 9 8 8 6 6 3 6 3 3 4 1 2 3 4 4 4 4 2 3 3 3 4 0 2 3 7 10
14 14 13 11 9 10 11 9 8 7 4 4 3 3 2 1 3 4 3 1 3 5 3 3 2 3 3 3 1 4 5 6 10
Wind_Direction
336 334 339 341 342 344 341 340 343 339 321 310 278 250 245 236 223 214 220 219 238 244 217 206 194 187 188 187 185 181 179 181 175
343 338 325 326 325 330 330 328 327 326 327 324 310 304 271 254 220 215 211 230 237 247 223 207 201 195 191 192 190 182 181 180 176
334 331 331 320 320 315 317 320 315 313 312 311 313 320 306 304 293 236 217 227 241 251 215 210 207 201 198 194 192 194 188 188 187
329 325 326 324 313 309 311 304 306 306 303 309 301 298 308 300 322 302 268 247 243 243 221 218 211 203 197 196 196 195 196 190 194
326 329 322 321 318 316 305 300 294 306 319 331 323 324 343 327 317 289 270 281 269 244 227 223 220 211 204 203 201 196 198 196 196
309 303 316 315 314 316 319 308 302 295 320 327 331 340 341 326 319 327 312 316 289 247 227 227 222 214 209 205 203 201 200 200 199
293 302 309 314 313 312 313 318 307 303 297 302 322 314 337 340 337 319 330 321 310 274 243 237 223 220 215 209 206 202 203 204 202
266 264 283 278 298 303 303 297 297 289 271 270 280 301 337 322 332 337 339 333 326 325 334 260 228 226 219 216 210 206 200 203 204
259 258 264 268 262 282 284 285 290 277 261 255 249 280 317 319 341 340 342 338 328 330 348 346 256 240 229 222 215 211 206 202 204
252 246 245 255 267 261 277 285 289 280 259 228 251 241 260 319 330 341 347 346 353 346 345 1 338 311 311 261 223 213 209 208 205
292 266 248 253 253 269 261 272 287 278 260 230 228 228 217 235 301 319 336 340 351 356 353 351 342 343 339 322 329 213 209 210 213
281 286 266 237 248 259 271 284 277 274 270 256 219 219 246 248 256 260 290 323 334 345 346 341 334 323 324 327 331 24 254 225 223
292 287 278 266 234 242 247 253 270 244 253 261 247 226 209 236 250 259 254 235 295 327 331 334 335 331 319 315 340 347 338 337 294
293 292 288 275 255 237 238 248 215 251 261 253 254 233 230 221 218 242 250 253 271 285 313 321 331 322 312 301 289 268 281 304 305
276 280 290 288 273 249 226 223 230 213 235 268 267 226 212 209 208 234 262 276 280 275 294 312 313 305 327 1 336 307 281 237 263
274 271 272 273 268 259 234 214 227 244 213 241 281 274 245 225 224 221 231 261 262 286 287 264 260 270 297 352 350 8 353 335 316
281 270 266 258 274 278 248 237 229 229 194 195 183 241 292 251 225 215 217 236 246 279 303 287 247 227 257 272 341 341 339 342 335
277 272 267 258 251 256 261 238 227 232 219 207 176 175 216 122 300 226 210 229 231 259 281 291 264 261 255 274 129 53 356 354 341
273 269 263 261 250 248 252 239 238 213 210 190 218 171 142 164 203 285 238 214 220 231 264 290 284 282 269 252 215 33 355 336 332
275 269 265 256 256 243 254 245 227 222 196 201 174 170 164 180 149 209 264 330 238 236 235 259 243 232 236 241 275 15 355 332 320